Вернуться в каталог

SL-8 R/B

АктивенLEO
NORAD 13149·ROCKET BODY·🇷🇺 Russia

Запущен Apr 28, 1982 с Plesetsk Cosmodrome

Loading…

Ближайшие Пролёты (ближайшие 24 часа)

TLE

СвежийSource: Space-Track

Эпоха: Sep 14, 2026, 12:56 UTC

1 13149U 82037B   26257.53917450  .00000120  00000-0  49569-4 0  9994
2 13149  74.0422 180.3084 0014153 275.8693  84.0847 14.36754536321839

Отслеживайте SL-8 R/B в реальном времени с AllMySat

Download on the App Store